When you browse on this site, cookies collect data to enhance your experience and personalize the content and advertising you see.
Visit our Privacy Policy to learn more. By continuing to use the site, you agree to this use of cookies and data.
  • In Lithuania
  • List of Countries
  • For 7 days
  • Water Temperature
  • Satellite Maps
  • Weather Map
  • Weather Widgets
  • user-avatar
    Login

    Hourly Weather Korçe

    Today, 20 March, Wednesday

    Time Temperature Precipitation Wind Pressure Humidity
    00:00 +6°C° 0.1 mm 0 mps 667 mmHg 83%
    01:00 +7°C° 0.1 mm 1 mps 667 mmHg 82%
    02:00 +7°C° 0 mm 1 mps 667 mmHg 82%
    03:00 +7°C° 0 mm 1 mps 667 mmHg 82%
    04:00 +6°C° 0 mm 1 mps 667 mmHg 82%
    05:00 +6°C° 0 mm 2 mps 667 mmHg 81%
    06:00 +6°C° 0 mm 2 mps 667 mmHg 80%
    07:00 +7°C° 0 mm 2 mps 668 mmHg 80%
    08:00 +9°C° 0 mm 2 mps 668 mmHg 71%
    09:00 +12°C° 0 mm 2 mps 669 mmHg 62%
    10:00 +14°C° 0 mm 2 mps 670 mmHg 53%
    11:00 +15°C° 0 mm 2 mps 670 mmHg 50%
    12:00 +16°C° 0 mm 2 mps 670 mmHg 47%
    13:00 +16°C° 0 mm 2 mps 670 mmHg 43%
    14:00 +16°C° 0.4 mm 2 mps 670 mmHg 46%
    15:00 +15°C° 0.4 mm 2 mps 670 mmHg 49%
    16:00 +15°C° 0.4 mm 2 mps 670 mmHg 52%
    17:00 +13°C° 0.4 mm 2 mps 670 mmHg 58%
    18:00 +12°C° 0.4 mm 2 mps 670 mmHg 65%
    19:00 +9°C° 0.4 mm 2 mps 670 mmHg 71%
    20:00 +9°C° 0 mm 2 mps 670 mmHg 74%
    21:00 +8°C° 0 mm 2 mps 670 mmHg 77%
    22:00 +7°C° 0 mm 2 mps 670 mmHg 79%
    23:00 +7°C° 0 mm 2 mps 670 mmHg 81%

    Tomorrow, 21 March, Thursday

    Time Temperature Precipitation Wind Pressure Humidity
    00:00 +6°C° 0 mm 2 mps 670 mmHg 82%
    01:00 +6°C° 0 mm 2 mps 670 mmHg 84%
    02:00 +5°C° 0 mm 2 mps 670 mmHg 85%
    03:00 +5°C° 0 mm 2 mps 670 mmHg 85%
    04:00 +4°C° 0 mm 2 mps 670 mmHg 85%
    05:00 +5°C° 0 mm 2 mps 670 mmHg 83%
    06:00 +4°C° 0 mm 3 mps 671 mmHg 81%
    07:00 +5°C° 0 mm 3 mps 671 mmHg 79%
    08:00 +7°C° 0 mm 3 mps 671 mmHg 73%
    09:00 +9°C° 0 mm 3 mps 672 mmHg 66%
    10:00 +11°C° 0 mm 3 mps 672 mmHg 60%
    11:00 +11°C° 0 mm 3 mps 672 mmHg 58%
    12:00 +12°C° 0 mm 4 mps 672 mmHg 56%
    13:00 +12°C° 0 mm 4 mps 672 mmHg 53%
    14:00 +12°C° 0 mm 4 mps 672 mmHg 54%
    15:00 +12°C° 0 mm 4 mps 672 mmHg 55%
    16:00 +11°C° 0 mm 4 mps 672 mmHg 56%
    17:00 +10°C° 0 mm 3 mps 671 mmHg 63%
    18:00 +8°C° 0 mm 3 mps 671 mmHg 70%
    19:00 +7°C° 0 mm 2 mps 671 mmHg 77%
    20:00 +6°C° 0 mm 2 mps 671 mmHg 80%
    21:00 +5°C° 0 mm 2 mps 671 mmHg 83%
    22:00 +5°C° 0 mm 2 mps 672 mmHg 86%
    23:00 +5°C° 0 mm 2 mps 672 mmHg 87%

    Day after tomorrow, 22 March, Friday

    Time Temperature Precipitation Wind Pressure Humidity
    00:00 +4°C° 0 mm 2 mps 672 mmHg 88%
    01:00 +4°C° 0 mm 2 mps 672 mmHg 89%
    02:00 +4°C° 0 mm 2 mps 671 mmHg 89%
    03:00 +3°C° 0 mm 2 mps 671 mmHg 90%
    04:00 +3°C° 0 mm 2 mps 671 mmHg 91%
    05:00 +4°C° 0 mm 2 mps 672 mmHg 88%
    06:00 +4°C° 0 mm 2 mps 672 mmHg 86%
    07:00 +4°C° 0 mm 3 mps 672 mmHg 84%
    08:00 +5°C° 0 mm 3 mps 673 mmHg 75%
    09:00 +8°C° 0 mm 3 mps 673 mmHg 67%
    10:00 +10°C° 0 mm 3 mps 673 mmHg 59%
    11:00 +11°C° 0 mm 3 mps 673 mmHg 55%
    12:00 +11°C° 0 mm 3 mps 673 mmHg 52%
    13:00 +12°C° 0 mm 3 mps 673 mmHg 48%
    14:00 +12°C° 0 mm 3 mps 673 mmHg 49%
    15:00 +12°C° 0 mm 3 mps 672 mmHg 49%
    16:00 +11°C° 0 mm 3 mps 672 mmHg 50%
    17:00 +10°C° 0 mm 3 mps 672 mmHg 57%
    18:00 +8°C° 0 mm 2 mps 671 mmHg 64%
    19:00 +6°C° 0 mm 2 mps 671 mmHg 71%
    20:00 +6°C° 0 mm 2 mps 671 mmHg 74%
    21:00 +5°C° 0 mm 2 mps 671 mmHg 77%
    22:00 +5°C° 0 mm 2 mps 671 mmHg 80%
    23:00 +4°C° 0 mm 2 mps 671 mmHg 82%

    23 March, Saturday

    Time Temperature Precipitation Wind Pressure Humidity
    00:00 +4°C° 0 mm 2 mps 671 mmHg 83%
    01:00 +4°C° 0 mm 2 mps 671 mmHg 84%
    02:00 +3°C° 0 mm 2 mps 671 mmHg 84%
    03:00 +3°C° 0 mm 2 mps 670 mmHg 85%
    04:00 +3°C° 0 mm 2 mps 670 mmHg 85%
    05:00 +4°C° 0 mm 2 mps 670 mmHg 82%
    06:00 +4°C° 0 mm 2 mps 671 mmHg 80%
    07:00 +5°C° 0 mm 2 mps 671 mmHg 78%
    08:00 +7°C° 0 mm 2 mps 671 mmHg 68%
    09:00 +9°C° 0 mm 3 mps 672 mmHg 59%
    10:00 +11°C° 0 mm 3 mps 672 mmHg 50%
    11:00 +12°C° 0 mm 3 mps 672 mmHg 47%
    12:00 +13°C° 0 mm 3 mps 672 mmHg 44%
    13:00 +14°C° 0 mm 3 mps 672 mmHg 41%
    14:00 +14°C° 0 mm 3 mps 672 mmHg 42%
    15:00 +14°C° 0 mm 3 mps 671 mmHg 43%
    16:00 +15°C° 0 mm 2 mps 671 mmHg 44%
    17:00 +13°C° 0 mm 2 mps 671 mmHg 51%
    18:00 +10°C° 0 mm 2 mps 671 mmHg 58%
    19:00 +8°C° 0 mm 2 mps 670 mmHg 66%
    20:00 +7°C° 0 mm 2 mps 670 mmHg 67%
    21:00 +7°C° 0 mm 2 mps 670 mmHg 69%
    22:00 +6°C° 0 mm 2 mps 670 mmHg 71%
    23:00 +6°C° 0 mm 2 mps 670 mmHg 71%

    24 March, Sunday

    Time Temperature Precipitation Wind Pressure Humidity
    00:00 +5°C° 0 mm 2 mps 670 mmHg 71%
    01:00 +5°C° 0 mm 2 mps 669 mmHg 70%
    02:00 +5°C° 0 mm 2 mps 669 mmHg 70%
    03:00 +5°C° 0 mm 2 mps 669 mmHg 69%
    04:00 +4°C° 0 mm 2 mps 669 mmHg 69%
    05:00 +5°C° 0 mm 2 mps 669 mmHg 67%
    06:00 +6°C° 0 mm 2 mps 669 mmHg 66%
    07:00 +7°C° 0 mm 2 mps 669 mmHg 65%
    08:00 +10°C° 0 mm 1 mps 670 mmHg 58%
    09:00 +12°C° 0 mm 1 mps 671 mmHg 50%
    10:00 +15°C° 0 mm 1 mps 671 mmHg 43%
    11:00 +15°C° 0 mm 1 mps 671 mmHg 41%
    12:00 +16°C° 0 mm 1 mps 671 mmHg 38%
    13:00 +18°C° 0 mm 1 mps 671 mmHg 36%
    14:00 +18°C° 0 mm 1 mps 670 mmHg 39%
    15:00 +16°C° 0 mm 2 mps 670 mmHg 42%
    16:00 +15°C° 0 mm 2 mps 669 mmHg 45%
    17:00 +14°C° 0 mm 2 mps 669 mmHg 54%
    18:00 +12°C° 0 mm 2 mps 668 mmHg 64%
    19:00 +10°C° 0 mm 1 mps 668 mmHg 73%
    20:00 +10°C° 0 mm 1 mps 668 mmHg 74%
    21:00 +9°C° 0 mm 1 mps 668 mmHg 75%
    22:00 +9°C° 0 mm 1 mps 668 mmHg 76%
    23:00 +8°C° 0 mm 1 mps 667 mmHg 76%

    25 March, Monday

    Time Temperature Precipitation Wind Pressure Humidity
    00:00 +8°C° 0 mm 1 mps 667 mmHg 75%
    01:00 +8°C° 0 mm 1 mps 667 mmHg 75%
    02:00 +8°C° 0 mm 1 mps 667 mmHg 75%
    03:00 +7°C° 0 mm 1 mps 666 mmHg 75%
    04:00 +7°C° 0 mm 1 mps 666 mmHg 74%
    05:00 +7°C° 0 mm 0 mps 666 mmHg 72%
    06:00 +8°C° 0 mm 0 mps 667 mmHg 69%
    07:00 +8°C° 0 mm 0 mps 667 mmHg 67%
    08:00 +11°C° 0 mm 1 mps 667 mmHg 60%
    09:00 +13°C° 0 mm 1 mps 668 mmHg 54%
    10:00 +15°C° 0 mm 1 mps 668 mmHg 47%
    11:00 +15°C° 0.1 mm 2 mps 668 mmHg 47%
    12:00 +15°C° 0.1 mm 2 mps 667 mmHg 46%
    13:00 +16°C° 0.1 mm 3 mps 667 mmHg 46%
    14:00 +14°C° 0.2 mm 3 mps 667 mmHg 50%
    15:00 +14°C° 0.2 mm 3 mps 666 mmHg 54%
    16:00 +13°C° 0.2 mm 3 mps 665 mmHg 59%
    17:00 +12°C° 0.1 mm 2 mps 665 mmHg 69%
    18:00 +10°C° 0.1 mm 2 mps 665 mmHg 79%
    19:00 +9°C° 0.1 mm 1 mps 664 mmHg 89%
    20:00 +8°C° 0 mm 1 mps 664 mmHg 91%
    21:00 +8°C° 0 mm 1 mps 664 mmHg 93%
    22:00 +7°C° 0 mm 1 mps 664 mmHg 95%
    23:00 +6°C° 0 mm 0 mps 664 mmHg 94%
    Show more